| time (UTC) | temp F | wind direction | speed knots | gust knots | rain 1hr in | rain 24hr in | rain mn in | humidity % | barometer mb |
| 20260507031513 | 47 | 344 | 0.0 | 0.0 | 0.00 | 0.46 | 0.31 | 82 | 1014.6 |
| 20260507030018 | 47 | 344 | 0.0 | 0.0 | 0.00 | 0.51 | 0.31 | 80 | 1014.6 |
| 20260507024522 | 48 | 344 | 0.0 | 0.0 | 0.00 | 0.51 | 0.31 | 79 | 1014.8 |
| 20260507023023 | 48 | 344 | 0.0 | 0.0 | 0.00 | 0.51 | 0.31 | 76 | 1014.8 |
| 20260507021523 | 48 | 344 | 0.0 | 0.0 | 0.00 | 0.51 | 0.31 | 76 | 1014.7 |
| 20260507020027 | 49 | 344 | 0.0 | 0.0 | 0.00 | 0.63 | 0.31 | 74 | 1014.7 |
| 20260507014532 | 49 | 344 | 0.0 | 0.0 | 0.00 | 0.63 | 0.31 | 73 | 1014.4 |
| 20260507013037 | 49 | 344 | 0.0 | 0.0 | 0.00 | 0.63 | 0.31 | 71 | 1014.2 |
| 20260507011534 | 49 | 344 | 0.0 | 0.0 | 0.00 | 0.63 | 0.31 | 71 | 1014.1 |
| 20260507010027 | 50 | 344 | 0.0 | 0.0 | 0.00 | 0.86 | 0.31 | 73 | 1014.0 |
| 20260507004525 | 51 | 344 | 0.0 | 0.0 | 0.00 | 0.86 | 0.31 | 71 | 1014.0 |
| 20260507003027 | 52 | 344 | 0.0 | 0.0 | 0.00 | 0.86 | 0.31 | 69 | 1013.9 |
| 20260507001542 | 53 | 344 | 0.0 | 0.0 | 0.00 | 0.86 | 0.31 | 64 | 1013.6 |
| 20260507000035 | 53 | 339 | 0.0 | 2.6 | 0.00 | 1.24 | 0.31 | 66 | 1013.4 |
| 20260506234537 | 53 | 337 | 1.7 | 3.5 | 0.00 | 1.24 | 0.31 | 66 | 1013.5 |
| 20260506233045 | 53 | 335 | 0.0 | 3.5 | 0.00 | 1.24 | 0.31 | 68 | 1013.6 |
| 20260506231547 | 53 | 334 | 1.7 | 4.3 | 0.00 | 1.24 | 0.31 | 68 | 1013.5 |
| 20260506230048 | 53 | 319 | 1.7 | 6.1 | 0.00 | 1.24 | 0.31 | 65 | 1013.5 |
| 20260506224553 | 54 | 331 | 0.0 | 3.5 | 0.00 | 1.27 | 0.31 | 65 | 1013.7 |
| 20260506223123 | 54 | 327 | 0.0 | 0.9 | 0.00 | 1.27 | 0.31 | 61 | 1013.8 |
| 20260506221509 | 54 | 320 | 0.0 | 5.2 | 0.00 | 1.27 | 0.31 | 62 | 1013.9 |
| 20260506220011 | 55 | 331 | 0.0 | 3.5 | 0.00 | 1.27 | 0.31 | 61 | 1013.7 |
| 20260506214511 | 54 | 344 | 0.0 | 2.6 | 0.00 | 1.27 | 0.31 | 61 | 1013.5 |
| 20260506213013 | 54 | 339 | 0.0 | 3.5 | 0.00 | 1.27 | 0.31 | 61 | 1013.5 |
| 20260506211515 | 54 | 354 | 0.0 | 3.5 | 0.00 | 1.27 | 0.31 | 62 | 1013.4 |
| 20260506210016 | 54 | 321 | 2.6 | 7.0 | 0.00 | 1.29 | 0.31 | 64 | 1013.4 |
| 20260506204517 | 54 | 347 | 0.0 | 6.1 | 0.00 | 1.29 | 0.31 | 65 | 1013.3 |
| 20260506203021 | 54 | 333 | 0.9 | 3.5 | 0.00 | 1.29 | 0.31 | 63 | 1013.4 |
| 20260506201521 | 54 | 339 | 0.0 | 4.3 | 0.00 | 1.29 | 0.31 | 63 | 1013.4 |
| 20260506200009 | 54 | 319 | 0.0 | 7.0 | 0.00 | 1.37 | 0.31 | 62 | 1013.2 |
| 20260506194512 | 54 | 345 | 0.0 | 0.9 | 0.00 | 1.37 | 0.31 | 66 | 1013.1 |
| 20260506193013 | 54 | 323 | 0.9 | 5.2 | 0.00 | 1.37 | 0.31 | 62 | 1013.0 |
| 20260506191518 | 54 | 329 | 0.0 | 3.5 | 0.00 | 1.37 | 0.31 | 62 | 1013.3 |
| 20260506190021 | 54 | 321 | 0.0 | 3.5 | 0.00 | 1.37 | 0.31 | 62 | 1013.3 |
| 20260506184524 | 53 | 337 | 0.9 | 3.5 | 0.00 | 1.37 | 0.31 | 64 | 1013.3 |
| 20260506183008 | 54 | 339 | 0.0 | 7.0 | 0.00 | 1.37 | 0.31 | 62 | 1013.3 |
| 20260506181516 | 54 | 348 | 0.0 | 2.6 | 0.00 | 1.37 | 0.31 | 66 | 1013.0 |
| 20260506180032 | 53 | 354 | 2.6 | 5.2 | 0.00 | 1.38 | 0.31 | 66 | 1013.2 |
| 20260506174530 | 53 | 329 | 0.9 | 3.5 | 0.00 | 1.38 | 0.31 | 67 | 1013.3 |
| 20260506173015 | 53 | 319 | 0.0 | 2.6 | 0.00 | 1.38 | 0.31 | 63 | 1013.5 |
| 20260506171506 | 53 | 350 | 1.7 | 7.8 | 0.00 | 1.38 | 0.31 | 65 | 1013.3 |
| 20260506170008 | 53 | 13 | 1.7 | 7.8 | 0.00 | 1.38 | 0.31 | 66 | 1013.1 |
| 20260506164513 | 53 | 346 | 0.0 | 0.9 | 0.00 | 1.38 | 0.31 | 71 | 1013.2 |
| 20260506163022 | 53 | 345 | 0.0 | 0.9 | 0.00 | 1.38 | 0.31 | 68 | 1013.1 |
| 20260506161536 | 53 | 322 | 0.0 | 4.3 | 0.00 | 1.38 | 0.31 | 67 | 1013.0 |
| 20260506160026 | 52 | 345 | 0.9 | 5.2 | 0.00 | 1.38 | 0.31 | 69 | 1013.5 |
| 20260506154530 | 52 | 327 | 0.0 | 2.6 | 0.00 | 1.38 | 0.31 | 70 | 1012.9 |
| 20260506153031 | 51 | 352 | 2.6 | 7.0 | 0.00 | 1.38 | 0.31 | 71 | 1012.9 |
| 20260506151534 | 51 | 347 | 0.9 | 8.7 | 0.00 | 1.38 | 0.31 | 73 | 1012.9 |
| 20260506150040 | 50 | 10 | 2.6 | 9.6 | 0.00 | 1.38 | 0.31 | 75 | 1012.5 |
| 20260506144540 | 50 | 328 | 0.0 | 7.0 | 0.00 | 1.38 | 0.31 | 76 | 1012.2 |
| 20260506143044 | 50 | 325 | 0.0 | 2.6 | 0.00 | 1.38 | 0.31 | 79 | 1012.0 |
| 20260506141548 | 49 | 355 | 0.0 | 3.5 | 0.00 | 1.38 | 0.31 | 80 | 1012.5 |
| 20260506140051 | 49 | 337 | 0.9 | 7.0 | 0.00 | 1.38 | 0.31 | 80 | 1012.1 |
| 20260506134616 | 48 | 338 | 0.0 | 4.3 | 0.00 | 1.38 | 0.31 | 82 | 1012.2 |
| 20260506133059 | 47 | 33 | 0.0 | 2.6 | 0.00 | 1.38 | 0.31 | 83 | 1012.0 |
| 20260506131612 | 46 | 344 | 0.0 | 3.5 | 0.00 | 1.38 | 0.31 | 87 | 1011.9 |
| 20260506131504 | 46 | 339 | 0.0 | 3.5 | 0.00 | 1.38 | 0.31 | 87 | 1011.9 |
| 20260506130005 | 45 | 336 | 0.0 | 5.2 | 0.00 | 1.38 | 0.31 | 87 | 1011.6 |
| 20260506124603 | 45 | 325 | 0.0 | 2.6 | 0.00 | 1.38 | 0.31 | 88 | 1011.8 |
| 20260506124508 | 45 | 337 | 0.0 | 2.6 | 0.00 | 1.38 | 0.31 | 88 | 1011.8 |
| 20260506123058 | 45 | 354 | 0.0 | 4.3 | 0.00 | 1.38 | 0.31 | 89 | 1011.3 |
| 20260506123006 | 45 | 356 | 0.0 | 4.3 | 0.00 | 1.38 | 0.31 | 89 | 1011.3 |
| 20260506121546 | 44 | 345 | 0.0 | 3.5 | 0.00 | 1.38 | 0.31 | 89 | 1011.3 |
| 20260506120042 | 44 | 356 | 0.0 | 3.5 | 0.00 | 1.38 | 0.31 | 90 | 1010.9 |
| 20260506114533 | 44 | 348 | 0.9 | 5.2 | 0.00 | 1.38 | 0.31 | 90 | 1010.3 |
| 20260506113029 | 44 | 345 | 0.0 | 1.7 | 0.00 | 1.38 | 0.31 | 90 | 1010.1 |
| 20260506111525 | 44 | 352 | 0.0 | 2.6 | 0.00 | 1.38 | 0.31 | 90 | 1009.9 |
| 20260506110031 | 44 | 342 | 0.0 | 4.3 | 0.00 | 1.39 | 0.31 | 90 | 1009.9 |
| 20260506104531 | 44 | 352 | 0.0 | 4.3 | 0.00 | 1.39 | 0.31 | 91 | 1009.6 |
| 20260506103034 | 43 | 343 | 0.0 | 4.3 | 0.00 | 1.39 | 0.31 | 90 | 1009.1 |
| 20260506101537 | 44 | 360 | 0.0 | 4.3 | 0.00 | 1.39 | 0.31 | 91 | 1009.2 |
| 20260506100040 | 43 | 352 | 0.9 | 5.2 | 0.00 | 1.44 | 0.31 | 90 | 1009.3 |
| 20260506094542 | 43 | 2 | 0.9 | 4.3 | 0.00 | 1.44 | 0.31 | 90 | 1008.8 |
| 20260506093019 | 43 | 360 | 0.9 | 7.0 | 0.00 | 1.44 | 0.31 | 90 | 1008.9 |
| 20260506091520 | 43 | 335 | 1.7 | 5.2 | 0.00 | 1.44 | 0.31 | 90 | 1008.3 |
| 20260506090024 | 43 | 345 | 1.7 | 5.2 | 0.01 | 1.64 | 0.31 | 90 | 1008.5 |
| 20260506084530 | 43 | 353 | 0.0 | 5.2 | 0.01 | 1.64 | 0.31 | 90 | 1008.6 |
| 20260506083037 | 43 | 298 | 0.0 | 5.2 | 0.02 | 1.64 | 0.31 | 90 | 1007.9 |
| 20260506081548 | 43 | 300 | 1.7 | 9.6 | 0.03 | 1.64 | 0.31 | 90 | 1007.6 |
| 20260506073033 | 43 | 341 | 0.0 | 5.2 | 0.01 | 1.63 | 0.28 | 89 | 1008.3 |
| 20260506071534 | 44 | 334 | 2.6 | 10.4 | 0.02 | 1.62 | 0.28 | 88 | 1008.0 |
| 20260506061543 | 45 | 354 | 4.3 | 12.2 | 0.07 | 1.60 | 0.26 | 92 | 1008.6 |
| 20260506044555 | 46 | 333 | 7.8 | 13.0 | 0.17 | 1.44 | 0.10 | 92 | 1008.4 |
| 20260506043057 | 46 | 344 | 0.0 | 5.2 | 0.17 | 1.37 | 0.03 | 92 | 1008.0 |
| 20260506041602 | 46 | 20 | 0.0 | 2.6 | 0.17 | 1.36 | 0.02 | 92 | 1007.2 |
| 20260506040049 | 46 | 290 | 0.0 | 7.0 | 0.15 | 1.34 | 0.00 | 92 | 1007.5 |
| 20260506034542 | 46 | 20 | 0.0 | 11.3 | 0.07 | 1.26 | 1.27 | 92 | 1007.9 |
| 20260506033045 | 47 | 338 | 3.5 | 10.4 | 0.02 | 1.20 | 1.20 | 92 | 1007.7 |